Date,TemperatureHighF,TemperatureAvgF,TemperatureLowF,DewpointHighF,DewpointAvgF,DewpointLowF,HumidityHigh,HumidityAvg,HumidityLow,PressureMaxIn,PressureMinIn,WindSpeedMaxMPH,WindSpeedAvgMPH,GustSpeedMaxMPH,PrecipitationSumIn
2013-1-1,23.2,16.8,10.1,20.2,13.5,8.4,100,87,67,30.37,30.21,6,0,8,0.00
2013-1-2,34.1,23.7,11.4,30.7,20.8,9.8,93,89,79,30.28,30.11,6,1,10,0.00
2013-1-3,34.2,25.7,13.4,30.0,22.9,11.9,100,89,83,30.46,30.27,6,0,9,0.00
2013-1-4,33.9,21.5,12.2,26.1,18.1,10.5,100,87,69,30.40,30.18,8,1,12,0.00
2013-1-5,40.5,31.5,15.6,34.3,27.3,14.0,100,84,70,30.25,30.06,12,3,20,0.00
2013-1-6,43.1,28.9,15.4,32.1,24.0,1.7,100,83,32,30.40,30.18,7,1,11,0.00
2013-1-7,47.4,38.2,29.3,35.0,30.3,27.0,100,73,59,30.18,29.97,15,4,29,0.00
2013-1-8,48.3,37.2,28.0,37.0,31.8,26.1,100,81,63,30.21,29.90,12,2,22,0.00
2013-1-9,57.9,36.3,24.1,39.5,30.4,22.5,100,81,45,30.48,30.21,4,0,7,0.00
2013-1-10,43.5,38.5,29.5,42.0,36.8,27.6,100,93,82,30.35,29.71,8,1,16,0.00
2013-1-11,58.2,48.7,32.7,56.8,43.2,27.3,100,82,40,29.84,29.43,15,7,24,0.00
2013-1-12,32.8,23.6,16.6,27.7,16.4,10.3,84,73,61,30.17,29.84,10,3,20,0.00
2013-1-13,25.5,16.7,10.9,13.0,10.6,7.1,90,77,56,30.39,30.15,8,2,14,0.00
2013-1-14,30.7,18.7,7.2,19.1,13.2,5.2,92,80,57,30.52,30.35,5,0,8,0.00
2013-1-15,36.9,23.9,12.1,22.8,17.5,10.2,100,78,51,30.40,30.13,6,0,11,0.00
2013-1-16,55.3,36.0,22.2,38.8,28.7,18.9,90,76,52,30.27,30.01,8,1,14,0.00
2013-1-17,53.2,35.2,22.9,37.7,29.3,-12.0,100,81,7,30.51,30.26,8,0,12,0.00
2013-1-18,59.9,43.4,27.4,38.3,33.3,25.1,100,70,41,30.35,29.96,16,4,26,0.00
2013-1-19,61.1,43.8,31.5,36.0,32.7,26.5,91,68,33,30.33,29.93,10,2,16,0.00
2013-1-20,34.0,24.8,17.5,26.4,17.2,-16.8,100,73,17,30.47,30.32,10,2,16,0.00
2013-1-21,19.7,17.2,15.5,16.7,12.6,8.6,100,82,67,30.50,30.37,8,1,12,0.00
2013-1-22,32.2,21.2,13.4,22.9,13.4,8.4,100,72,52,30.40,30.24,8,1,13,0.00
2013-1-23,44.2,26.0,14.2,29.5,19.6,12.0,100,78,55,30.49,30.18,11,2,19,0.00
2013-1-24,26.7,18.5,7.3,26.1,9.0,2.7,100,67,49,30.53,30.16,13,3,17,0.00
2013-1-25,51.9,32.5,17.5,32.7,22.0,13.1,100,67,42,30.24,30.16,19,0,10,0.00
2013-1-26,59.9,41.4,22.8,33.1,26.2,20.5,94,60,27,30.25,29.99,13,3,23,0.00
2013-1-27,57.1,45.9,40.8,54.0,43.6,29.4,100,91,54,30.00,29.66,11,4,19,0.00
2013-1-28,71.7,51.9,33.2,59.3,45.3,32.2,96,81,40,29.86,29.55,12,4,23,0.00
2013-1-29,64.8,38.0,32.8,59.9,35.7,31.6,95,91,80,29.73,29.54,13,6,21,0.00
2013-1-30,32.8,24.3,15.6,31.6,21.6,11.2,100,89,76,29.96,29.61,11,4,19,0.00
2013-1-31,19.4,13.9,2.8,17.0,9.6,0.6,93,83,69,30.49,29.94,12,3,21,0.00